Location: Seminole
(32.7190°N, 102.6440°W)
Time: 09:00:11
(UTC-05:00)

Meteor 2-10 - Visible Passes

Search period start: 25 June 2016 00:00
Search period end: 05 July 2016 00:00
Orbit: 738 x 869 km, 81.2° (Epoch: 24 June)

Date Brightness Start Highest point End Pass type
(mag) Time Alt. Az. Time Alt. Az. Time Alt. Az.
25 Jun 5.6 01:02:11 10° NNW 01:06:31 30° W 01:06:31 30° W visible
25 Jun 5.8 22:55:10 10° NNE 22:59:08 19° ENE 22:59:52 19° E visible
26 Jun 5.0 00:35:49 10° NNW 00:40:53 46° W 00:40:53 46° W visible
26 Jun 6.2 22:30:32 10° NE 22:32:55 13° ENE 22:34:15 12° E visible
27 Jun 4.3 00:09:38 10° NNW 00:15:17 70° W 00:15:17 70° W visible
27 Jun 4.1 23:43:37 10° N 23:49:21 80° E 23:49:41 76° SE visible
28 Jun 4.4 23:17:44 10° N 23:23:21 53° E 23:24:07 50° ESE visible
29 Jun 6.3 01:01:23 10° NW 01:04:43 16° W 01:05:09 16° W visible
29 Jun 5.0 22:52:02 10° N 22:57:17 36° ENE 22:58:33 32° ESE visible
30 Jun 5.9 00:34:27 10° NW 00:38:55 24° W 00:39:36 23° W visible
30 Jun 5.5 22:26:34 10° NNE 22:31:10 24° ENE 22:33:01 21° ESE visible
01 Jul 5.3 00:07:56 10° NNW 00:13:05 36° W 00:14:04 33° WSW visible
01 Jul 5.9 22:01:25 10° NNE 22:04:59 17° ENE 22:07:31 13° E visible
01 Jul 4.7 23:41:38 10° NNW 23:47:12 53° W 23:48:33 44° SW visible
02 Jul 6.2 21:37:30 10° NE 21:38:43 11° ENE 21:39:58 10° E visible
02 Jul 4.2 23:15:31 10° N 23:21:16 80° W 23:23:03 46° S visible
03 Jul 4.2 22:49:33 10° N 22:55:18 69° E 22:57:35 37° SSE visible
04 Jul 6.7 00:34:29 10° WNW 00:36:27 12° W 00:38:26 10° WSW visible
04 Jul 4.6 22:23:44 10° N 22:29:15 46° ENE 22:32:09 26° SE visible
